Time,TemperatureF,DewpointF,PressureIn,WindDirection,WindDirectionDegrees,WindSpeedMPH,WindSpeedGustMPH,Humidity,HourlyPrecipIn,Conditions,Clouds,dailyrainin,SoftwareType,DateUTC
2013-03-29 00:00:00,41.2,29.5,30.06,NW,304,0.0,0.0,63,0.00,,,0.00,Wunderground v.1.13,2013-03-29 04:00:00,
2013-03-29 00:05:00,41.2,29.5,30.07,NW,304,0.0,0.0,63,0.00,,,0.00,Wunderground v.1.13,2013-03-29 04:05:00,
2013-03-29 00:10:00,41.2,29.5,30.07,NW,304,0.0,0.0,63,0.00,,,0.00,Wunderground v.1.13,2013-03-29 04:10:00,
2013-03-29 00:15:00,41.3,29.6,30.07,NW,304,0.0,0.0,63,0.00,,,0.00,Wunderground v.1.13,2013-03-29 04:15:00,
2013-03-29 00:25:00,41.5,29.4,30.07,NW,304,0.0,0.0,62,0.00,,,0.00,Wunderground v.1.13,2013-03-29 04:25:00,
2013-03-29 00:30:00,41.5,29.4,30.07,NW,304,0.0,0.0,62,0.00,,,0.00,Wunderground v.1.13,2013-03-29 04:30:00,
2013-03-29 00:35:00,41.5,29.4,30.07,NW,304,0.0,0.0,62,0.00,,,0.00,Wunderground v.1.13,2013-03-29 04:35:00,
2013-03-29 00:40:00,41.6,29.5,30.07,NW,304,0.0,0.0,62,0.00,,,0.00,Wunderground v.1.13,2013-03-29 04:40:00,
2013-03-29 00:50:00,41.6,29.5,30.07,NW,304,0.0,0.0,62,0.00,,,0.00,Wunderground v.1.13,2013-03-29 04:50:00,
2013-03-29 00:55:00,41.6,29.5,30.07,NW,304,0.0,0.0,62,0.00,,,0.00,Wunderground v.1.13,2013-03-29 04:55:00,
2013-03-29 01:00:00,41.5,29.4,30.07,NW,304,0.0,0.0,62,0.00,,,0.00,Wunderground v.1.13,2013-03-29 05:00:00,
2013-03-29 01:10:00,41.5,29.4,30.07,NW,304,0.0,0.0,62,0.00,,,0.00,Wunderground v.1.13,2013-03-29 05:10:00,
2013-03-29 01:15:00,41.3,29.3,30.07,NW,304,0.0,0.0,62,0.00,,,0.00,Wunderground v.1.13,2013-03-29 05:15:00,
2013-03-29 01:25:00,41.3,29.3,30.07,NW,304,0.0,0.0,62,0.00,,,0.00,Wunderground v.1.13,2013-03-29 05:25:00,
2013-03-29 01:30:00,41.3,29.3,30.07,NW,304,0.0,0.0,62,0.00,,,0.00,Wunderground v.1.13,2013-03-29 05:30:00,
2013-03-29 01:35:00,41.2,29.2,30.07,NW,304,0.0,0.0,62,0.00,,,0.00,Wunderground v.1.13,2013-03-29 05:35:00,
2013-03-29 01:40:00,41.2,29.2,30.07,NW,304,0.0,0.0,62,0.00,,,0.00,Wunderground v.1.13,2013-03-29 05:40:00,
2013-03-29 01:45:00,41.2,28.8,30.07,NW,304,0.0,0.0,61,0.00,,,0.00,Wunderground v.1.13,2013-03-29 05:45:00,
2013-03-29 01:55:00,41.3,28.9,30.07,NW,304,0.0,0.0,61,0.00,,,0.00,Wunderground v.1.13,2013-03-29 05:55:00,
2013-03-29 02:00:00,41.2,28.8,30.08,NW,304,0.0,0.0,61,0.00,,,0.00,Wunderground v.1.13,2013-03-29 06:00:00,
2013-03-29 02:10:00,41.1,29.1,30.08,NW,304,0.0,0.0,62,0.00,,,0.00,Wunderground v.1.13,2013-03-29 06:10:00,
2013-03-29 02:15:00,40.9,28.9,30.08,NW,304,0.0,0.0,62,0.00,,,0.00,Wunderground v.1.13,2013-03-29 06:15:00,
2013-03-29 02:20:00,40.9,28.9,30.08,NW,304,0.0,0.0,62,0.00,,,0.00,Wunderground v.1.13,2013-03-29 06:20:00,
2013-03-29 02:30:00,40.9,28.5,30.08,NW,304,0.0,0.0,61,0.00,,,0.00,Wunderground v.1.13,2013-03-29 06:30:00,
2013-03-29 02:40:00,40.9,28.5,30.07,NW,304,0.0,0.0,61,0.00,,,0.00,Wunderground v.1.13,2013-03-29 06:40:00,
2013-03-29 02:45:00,40.8,28.4,30.07,NW,304,0.0,0.0,61,0.00,,,0.00,Wunderground v.1.13,2013-03-29 06:45:00,
2013-03-29 02:50:00,40.8,28.4,30.07,NW,304,0.0,0.0,61,0.00,,,0.00,Wunderground v.1.13,2013-03-29 06:50:00,
2013-03-29 02:55:00,40.8,28.4,30.07,NW,304,0.0,0.0,61,0.00,,,0.00,Wunderground v.1.13,2013-03-29 06:55:00,
2013-03-29 03:05:00,40.8,28.0,30.07,NW,304,0.0,0.0,60,0.00,,,0.00,Wunderground v.1.13,2013-03-29 07:05:00,
2013-03-29 03:10:00,40.8,28.0,30.07,NW,304,0.0,0.0,60,0.00,,,0.00,Wunderground v.1.13,2013-03-29 07:10:00,
2013-03-29 03:20:00,40.8,28.0,30.07,NW,304,0.0,0.0,60,0.00,,,0.00,Wunderground v.1.13,2013-03-29 07:20:00,
2013-03-29 03:25:00,40.5,27.7,30.07,NW,304,0.0,0.0,60,0.00,,,0.00,Wunderground v.1.13,2013-03-29 07:25:00,
2013-03-29 03:30:00,40.3,27.9,30.07,NW,304,0.0,0.0,61,0.00,,,0.00,Wunderground v.1.13,2013-03-29 07:30:00,
2013-03-29 03:40:00,39.9,27.5,30.07,NW,304,0.0,0.0,61,0.00,,,0.00,Wunderground v.1.13,2013-03-29 07:40:00,
2013-03-29 03:45:00,39.6,27.6,30.07,NW,304,0.0,0.0,62,0.00,,,0.00,Wunderground v.1.13,2013-03-29 07:45:00,
2013-03-29 03:50:00,39.5,27.5,30.07,NW,304,0.0,0.0,62,0.00,,,0.00,Wunderground v.1.13,2013-03-29 07:50:00,
2013-03-29 03:55:00,39.3,27.4,30.07,NW,304,0.0,0.0,62,0.00,,,0.00,Wunderground v.1.13,2013-03-29 07:55:00,
2013-03-29 04:05:00,39.1,27.6,30.07,NW,304,0.0,0.0,63,0.00,,,0.00,Wunderground v.1.13,2013-03-29 08:05:00,
2013-03-29 04:10:00,38.9,27.4,30.07,NW,304,0.0,0.0,63,0.00,,,0.00,Wunderground v.1.13,2013-03-29 08:10:00,
2013-03-29 04:15:00,38.9,27.4,30.07,NW,304,0.0,0.0,63,0.00,,,0.00,Wunderground v.1.13,2013-03-29 08:15:00,
2013-03-29 04:25:00,38.6,27.5,30.07,NW,304,0.0,0.0,64,0.00,,,0.00,Wunderground v.1.13,2013-03-29 08:25:00,
2013-03-29 04:30:00,38.5,27.4,30.07,NW,304,0.0,0.0,64,0.00,,,0.00,Wunderground v.1.13,2013-03-29 08:30:00,
2013-03-29 04:35:00,38.5,27.4,30.07,NW,304,0.0,0.0,64,0.00,,,0.00,Wunderground v.1.13,2013-03-29 08:35:00,
2013-03-29 04:40:00,38.3,27.2,30.07,NW,304,0.0,0.0,64,0.00,,,0.00,Wunderground v.1.13,2013-03-29 08:40:00,
2013-03-29 04:50:00,38.0,27.3,30.07,NW,304,0.0,0.0,65,0.00,,,0.00,Wunderground v.1.13,2013-03-29 08:50:00,
2013-03-29 04:55:00,37.9,27.2,30.07,NW,304,0.0,0.0,65,0.00,,,0.00,Wunderground v.1.13,2013-03-29 08:55:00,
2013-03-29 05:00:00,37.8,27.5,30.07,NW,304,0.0,0.0,66,0.00,,,0.00,Wunderground v.1.13,2013-03-29 09:00:00,
2013-03-29 05:10:00,37.8,27.5,30.07,NW,304,0.0,0.0,66,0.00,,,0.00,Wunderground v.1.13,2013-03-29 09:10:00,
2013-03-29 05:15:00,37.6,27.3,30.07,NW,305,0.0,0.0,66,0.00,,,0.00,Wunderground v.1.13,2013-03-29 09:15:00,
2013-03-29 05:20:00,37.8,27.5,30.07,NW,305,0.0,0.0,66,0.00,,,0.00,Wunderground v.1.13,2013-03-29 09:20:00,
2013-03-29 05:25:00,37.8,27.5,30.07,NW,305,0.0,0.0,66,0.00,,,0.00,Wunderground v.1.13,2013-03-29 09:25:00,
2013-03-29 05:30:00,37.8,27.5,30.07,NW,305,0.0,0.0,66,0.00,,,0.00,Wunderground v.1.13,2013-03-29 09:30:00,
2013-03-29 05:40:00,37.6,27.3,30.07,NW,305,0.0,0.0,66,0.00,,,0.00,Wunderground v.1.13,2013-03-29 09:40:00,
2013-03-29 05:45:00,37.5,27.2,30.08,NW,305,0.0,0.0,66,0.00,,,0.00,Wunderground v.1.13,2013-03-29 09:45:00,
2013-03-29 05:55:00,37.2,27.2,30.08,NW,305,0.0,0.0,67,0.00,,,0.00,Wunderground v.1.13,2013-03-29 09:55:00,
2013-03-29 06:00:00,37.0,27.1,30.08,NW,305,0.0,0.0,67,0.00,,,0.00,Wunderground v.1.13,2013-03-29 10:00:00,
2013-03-29 06:05:00,36.9,27.0,30.07,NW,305,0.0,0.0,67,0.00,,,0.00,Wunderground v.1.13,2013-03-29 10:05:00,
2013-03-29 06:10:00,36.8,26.9,30.07,NW,305,0.0,0.0,67,0.00,,,0.00,Wunderground v.1.13,2013-03-29 10:10:00,
2013-03-29 06:15:00,36.6,26.7,30.08,NW,305,0.0,0.0,67,0.00,,,0.00,Wunderground v.1.13,2013-03-29 10:15:00,
2013-03-29 06:25:00,36.2,26.6,30.08,NW,305,0.0,0.0,68,0.00,,,0.00,Wunderground v.1.13,2013-03-29 10:25:00,
2013-03-29 06:30:00,36.0,26.5,30.08,NW,305,0.0,0.0,68,0.00,,,0.00,Wunderground v.1.13,2013-03-29 10:30:00,
2013-03-29 06:35:00,35.8,26.6,30.08,NW,305,0.0,0.0,69,0.00,,,0.00,Wunderground v.1.13,2013-03-29 10:35:00,
2013-03-29 06:40:00,35.6,26.8,30.08,NW,305,0.0,0.0,70,0.00,,,0.00,Wunderground v.1.13,2013-03-29 10:40:00,
2013-03-29 06:50:00,35.5,26.7,30.08,NW,305,0.0,0.0,70,0.00,,,0.00,Wunderground v.1.13,2013-03-29 10:50:00,
2013-03-29 06:55:00,35.5,26.7,30.08,NW,305,0.0,0.0,70,0.00,,,0.00,Wunderground v.1.13,2013-03-29 10:55:00,
2013-03-29 07:00:00,35.3,26.8,30.08,NW,305,0.0,0.0,71,0.00,,,0.00,Wunderground v.1.13,2013-03-29 11:00:00,
2013-03-29 07:10:00,35.0,26.9,30.08,NW,305,0.0,0.0,72,0.00,,,0.00,Wunderground v.1.13,2013-03-29 11:10:00,
2013-03-29 07:15:00,34.9,27.1,30.09,NW,305,0.0,0.0,73,0.00,,,0.00,Wunderground v.1.13,2013-03-29 11:15:00,
2013-03-29 07:20:00,34.9,27.1,30.09,NW,305,0.0,0.0,73,0.00,,,0.00,Wunderground v.1.13,2013-03-29 11:20:00,
2013-03-29 07:30:00,34.9,27.5,30.09,NW,305,0.0,0.0,74,0.00,,,0.00,Wunderground v.1.13,2013-03-29 11:30:00,
2013-03-29 07:35:00,35.2,27.4,30.09,NW,305,0.0,0.0,73,0.00,,,0.00,Wunderground v.1.13,2013-03-29 11:35:00,
2013-03-29 07:40:00,35.9,27.7,30.09,NW,305,0.0,0.0,72,0.00,,,0.00,Wunderground v.1.13,2013-03-29 11:40:00,
2013-03-29 07:45:00,36.6,28.1,30.09,NW,305,0.0,0.0,71,0.00,,,0.00,Wunderground v.1.13,2013-03-29 11:45:00,
2013-03-29 07:55:00,38.2,28.6,30.09,WNW,302,0.0,0.0,68,0.00,,,0.00,Wunderground v.1.13,2013-03-29 11:55:00,
2013-03-29 08:00:00,38.8,28.4,30.09,WNW,302,0.0,0.0,66,0.00,,,0.00,Wunderground v.1.13,2013-03-29 12:00:00,
2013-03-29 08:10:00,39.8,29.0,30.10,West,281,0.0,0.0,65,0.00,,,0.00,Wunderground v.1.13,2013-03-29 12:10:00,
2013-03-29 08:15:00,40.1,28.9,30.10,West,281,0.0,0.0,64,0.00,,,0.00,Wunderground v.1.13,2013-03-29 12:15:00,
2013-03-29 08:20:00,40.5,28.9,30.10,North,359,1.0,3.0,63,0.00,,,0.00,Wunderground v.1.13,2013-03-29 12:20:00,
2013-03-29 08:25:00,40.9,29.3,30.10,NNW,329,1.0,1.0,63,0.00,,,0.00,Wunderground v.1.13,2013-03-29 12:25:00,
2013-03-29 08:35:00,41.2,28.8,30.10,West,265,1.0,1.0,61,0.00,,,0.00,Wunderground v.1.13,2013-03-29 12:35:00,
2013-03-29 08:40:00,41.3,28.9,30.10,WNW,287,1.0,1.0,61,0.00,,,0.00,Wunderground v.1.13,2013-03-29 12:40:00,
2013-03-29 08:45:00,41.6,29.1,30.09,NW,326,0.0,0.0,61,0.00,,,0.00,Wunderground v.1.13,2013-03-29 12:45:00,
2013-03-29 08:55:00,42.1,29.2,30.09,NNW,333,0.0,0.0,60,0.00,,,0.00,Wunderground v.1.13,2013-03-29 12:55:00,
2013-03-29 09:00:00,42.3,29.0,30.09,WNW,294,1.0,1.0,59,0.00,,,0.00,Wunderground v.1.13,2013-03-29 13:00:00,
2013-03-29 09:05:00,42.5,29.2,30.09,West,275,1.0,1.0,59,0.00,,,0.00,Wunderground v.1.13,2013-03-29 13:05:00,
2013-03-29 09:15:00,42.9,28.7,30.09,West,263,1.0,2.0,57,0.00,,,0.00,Wunderground v.1.13,2013-03-29 13:15:00,
2013-03-29 09:20:00,43.2,29.0,30.09,NW,304,2.0,2.0,57,0.00,,,0.00,Wunderground v.1.13,2013-03-29 13:20:00,
2013-03-29 09:25:00,43.6,29.4,30.09,West,274,1.0,2.0,57,0.00,,,0.00,Wunderground v.1.13,2013-03-29 13:25:00,
2013-03-29 09:35:00,44.1,28.9,30.09,North,354,1.0,1.0,55,0.00,,,0.00,Wunderground v.1.13,2013-03-29 13:35:00,
2013-03-29 09:40:00,44.5,29.8,30.09,North,354,0.0,0.0,56,0.00,,,0.00,Wunderground v.1.13,2013-03-29 13:40:00,
2013-03-29 09:45:00,44.8,29.2,30.09,NW,306,0.0,0.0,54,0.00,,,0.00,Wunderground v.1.13,2013-03-29 13:45:00,
2013-03-29 09:55:00,45.4,29.3,30.09,WSW,251,0.0,0.0,53,0.00,,,0.00,Wunderground v.1.13,2013-03-29 13:55:00,
2013-03-29 10:00:00,45.7,29.1,30.09,West,272,1.0,1.0,52,0.00,,,0.00,Wunderground v.1.13,2013-03-29 14:00:00,
2013-03-29 10:10:00,46.2,29.1,30.09,SW,215,2.0,2.0,51,0.00,,,0.00,Wunderground v.1.13,2013-03-29 14:10:00,
2013-03-29 10:15:00,46.7,29.0,30.09,WSW,247,1.0,1.0,50,0.00,,,0.00,Wunderground v.1.13,2013-03-29 14:15:00,
2013-03-29 10:20:00,47.0,28.8,30.09,North,0,1.0,1.0,49,0.00,,,0.00,Wunderground v.1.13,2013-03-29 14:20:00,
2013-03-29 10:30:00,47.9,29.1,30.09,WSW,241,1.0,2.0,48,0.00,,,0.00,Wunderground v.1.13,2013-03-29 14:30:00,
2013-03-29 10:35:00,48.0,29.2,30.09,NNW,330,1.0,2.0,48,0.00,,,0.00,Wunderground v.1.13,2013-03-29 14:35:00,
2013-03-29 10:40:00,47.9,28.1,30.09,WNW,301,1.0,3.0,46,0.00,,,0.00,Wunderground v.1.13,2013-03-29 14:40:00,
2013-03-29 10:45:00,48.0,28.7,30.09,WNW,287,2.0,2.0,47,0.00,,,0.00,Wunderground v.1.13,2013-03-29 14:45:00,
2013-03-29 10:55:00,48.5,27.0,30.09,WNW,301,1.0,2.0,43,0.00,,,0.00,Wunderground v.1.13,2013-03-29 14:55:00,
2013-03-29 11:00:00,48.5,27.0,30.09,West,260,3.0,5.0,43,0.00,,,0.00,Wunderground v.1.13,2013-03-29 15:00:00,
2013-03-29 11:05:00,48.5,27.0,30.09,West,275,4.0,4.0,43,0.00,,,0.00,Wunderground v.1.13,2013-03-29 15:05:00,
2013-03-29 11:15:00,49.6,27.4,30.09,West,278,2.0,2.0,42,0.00,,,0.00,Wunderground v.1.13,2013-03-29 15:15:00,
2013-03-29 11:20:00,49.6,26.2,30.08,WNW,284,1.0,7.0,40,0.00,,,0.00,Wunderground v.1.13,2013-03-29 15:20:00,
2013-03-29 11:25:00,49.6,26.8,30.08,WNW,292,2.0,2.0,41,0.00,,,0.00,Wunderground v.1.13,2013-03-29 15:25:00,
2013-03-29 11:30:00,49.5,26.1,30.08,WNW,285,3.0,3.0,40,0.00,,,0.00,Wunderground v.1.13,2013-03-29 15:30:00,
2013-03-29 11:40:00,49.8,25.8,30.08,WNW,292,3.0,3.0,39,0.00,,,0.00,Wunderground v.1.13,2013-03-29 15:40:00,
2013-03-29 11:45:00,49.8,25.2,30.08,WNW,282,5.0,5.0,38,0.00,,,0.00,Wunderground v.1.13,2013-03-29 15:45:00,
2013-03-29 11:55:00,50.8,26.1,30.08,WNW,287,3.0,3.0,38,0.00,,,0.00,Wunderground v.1.13,2013-03-29 15:55:00,
2013-03-29 12:00:00,50.7,26.0,30.08,NNW,340,2.0,2.0,38,0.00,,,0.00,Wunderground v.1.13,2013-03-29 16:00:00,
2013-03-29 12:05:00,51.3,25.9,30.07,WNW,289,2.0,2.0,37,0.00,,,0.00,Wunderground v.1.13,2013-03-29 16:05:00,
2013-03-29 12:10:00,51.6,25.5,30.07,WNW,296,2.0,3.0,36,0.00,,,0.00,Wunderground v.1.13,2013-03-29 16:10:00,
2013-03-29 12:15:00,51.6,26.1,30.07,West,271,2.0,3.0,37,0.00,,,0.00,Wunderground v.1.13,2013-03-29 16:15:00,
2013-03-29 12:25:00,51.9,25.1,30.07,WSW,254,3.0,6.0,35,0.00,,,0.00,Wunderground v.1.13,2013-03-29 16:25:00,
2013-03-29 12:30:00,51.6,24.8,30.06,North,353,3.0,3.0,35,0.00,,,0.00,Wunderground v.1.13,2013-03-29 16:30:00,
2013-03-29 12:40:00,51.1,24.4,30.06,WNW,289,2.0,2.0,35,0.00,,,0.00,Wunderground v.1.13,2013-03-29 16:40:00,
2013-03-29 12:45:00,51.7,24.9,30.06,West,264,2.0,3.0,35,0.00,,,0.00,Wunderground v.1.13,2013-03-29 16:45:00,
2013-03-29 12:50:00,51.7,24.9,30.06,NNW,339,2.0,3.0,35,0.00,,,0.00,Wunderground v.1.13,2013-03-29 16:50:00,
2013-03-29 12:55:00,51.6,24.8,30.06,West,280,3.0,3.0,35,0.00,,,0.00,Wunderground v.1.13,2013-03-29 16:55:00,
2013-03-29 13:05:00,53.1,25.4,30.05,NW,305,1.0,1.0,34,0.00,,,0.00,Wunderground v.1.13,2013-03-29 17:05:00,
2013-03-29 13:10:00,53.5,25.8,30.05,West,271,1.0,5.0,34,0.00,,,0.00,Wunderground v.1.13,2013-03-29 17:10:00,
2013-03-29 13:15:00,52.9,26.0,30.05,WSW,239,1.0,2.0,35,0.00,,,0.00,Wunderground v.1.13,2013-03-29 17:15:00,
2013-03-29 13:25:00,51.6,24.1,30.05,West,280,3.0,3.0,34,0.00,,,0.00,Wunderground v.1.13,2013-03-29 17:25:00,
2013-03-29 13:30:00,51.9,24.4,30.05,WSW,256,2.0,2.0,34,0.00,,,0.00,Wunderground v.1.13,2013-03-29 17:30:00,
2013-03-29 13:35:00,52.6,25.0,30.04,West,275,3.0,6.0,34,0.00,,,0.00,Wunderground v.1.13,2013-03-29 17:35:00,
2013-03-29 13:40:00,53.2,25.5,30.04,NW,306,4.0,4.0,34,0.00,,,0.00,Wunderground v.1.13,2013-03-29 17:40:00,
2013-03-29 13:45:00,53.9,24.7,30.04,NW,304,3.0,3.0,32,0.00,,,0.00,Wunderground v.1.13,2013-03-29 17:45:00,
2013-03-29 13:55:00,53.5,25.8,30.04,NNW,347,4.0,4.0,34,0.00,,,0.00,Wunderground v.1.13,2013-03-29 17:55:00,
2013-03-29 14:00:00,53.8,25.3,30.04,SSW,210,2.0,2.0,33,0.00,,,0.00,Wunderground v.1.13,2013-03-29 18:00:00,
2013-03-29 14:05:00,53.2,24.1,30.03,NW,305,2.0,2.0,32,0.00,,,0.00,Wunderground v.1.13,2013-03-29 18:05:00,
2013-03-29 14:15:00,52.3,24.0,30.03,NNW,329,2.0,2.0,33,0.00,,,0.00,Wunderground v.1.13,2013-03-29 18:15:00,
2013-03-29 14:20:00,51.6,24.1,30.03,North,0,3.0,3.0,34,0.00,,,0.00,Wunderground v.1.13,2013-03-29 18:20:00,
2013-03-29 14:25:00,51.4,23.9,30.03,WNW,288,4.0,6.0,34,0.00,,,0.00,Wunderground v.1.13,2013-03-29 18:25:00,
2013-03-29 14:30:00,51.4,23.9,30.02,WNW,295,4.0,6.0,34,0.00,,,0.00,Wunderground v.1.13,2013-03-29 18:30:00,
2013-03-29 14:40:00,51.7,24.9,30.02,WNW,302,3.0,3.0,35,0.00,,,0.00,Wunderground v.1.13,2013-03-29 18:40:00,
2013-03-29 14:45:00,51.6,24.1,30.02,WNW,285,3.0,3.0,34,0.00,,,0.00,Wunderground v.1.13,2013-03-29 18:45:00,
2013-03-29 14:50:00,51.7,24.2,30.02,North,354,3.0,3.0,34,0.00,,,0.00,Wunderground v.1.13,2013-03-29 18:50:00,
2013-03-29 14:55:00,51.4,23.9,30.02,WSW,257,3.0,3.0,34,0.00,,,0.00,Wunderground v.1.13,2013-03-29 18:55:00,
2013-03-29 15:00:00,51.6,24.1,30.02,West,280,2.0,2.0,34,0.00,,,0.00,Wunderground v.1.13,2013-03-29 19:00:00,
2013-03-29 15:10:00,51.9,23.7,30.02,West,280,2.0,4.0,33,0.00,,,0.00,Wunderground v.1.13,2013-03-29 19:10:00,
2013-03-29 15:15:00,51.4,23.2,30.02,WNW,294,3.0,3.0,33,0.00,,,0.00,Wunderground v.1.13,2013-03-29 19:15:00,
2013-03-29 15:20:00,51.6,25.5,30.02,SE,138,4.0,4.0,36,0.00,,,0.00,Wunderground v.1.13,2013-03-29 19:20:00,
2013-03-29 15:25:00,52.0,23.8,30.02,NW,305,3.0,3.0,33,0.00,,,0.00,Wunderground v.1.13,2013-03-29 19:25:00,
2013-03-29 15:30:00,52.0,24.5,30.02,WNW,292,3.0,3.0,34,0.00,,,0.00,Wunderground v.1.13,2013-03-29 19:30:00,
2013-03-29 15:40:00,52.2,24.6,30.02,West,270,1.0,1.0,34,0.00,,,0.00,Wunderground v.1.13,2013-03-29 19:40:00,
2013-03-29 15:45:00,52.5,24.9,30.02,WNW,298,1.0,1.0,34,0.00,,,0.00,Wunderground v.1.13,2013-03-29 19:45:00,
2013-03-29 15:55:00,52.9,23.8,30.02,WNW,291,2.0,2.0,32,0.00,,,0.00,Wunderground v.1.13,2013-03-29 19:55:00,
2013-03-29 16:00:00,51.9,23.7,30.02,West,281,3.0,3.0,33,0.00,,,0.00,Wunderground v.1.13,2013-03-29 20:00:00,
2013-03-29 16:05:00,51.7,23.5,30.02,WNW,284,4.0,9.0,33,0.00,,,0.00,Wunderground v.1.13,2013-03-29 20:05:00,
2013-03-29 16:15:00,50.7,24.7,30.02,NNE,14,6.0,6.0,36,0.00,,,0.00,Wunderground v.1.13,2013-03-29 20:15:00,
2013-03-29 16:20:00,50.5,23.1,30.02,West,277,5.0,7.0,34,0.00,,,0.00,Wunderground v.1.13,2013-03-29 20:20:00,
2013-03-29 16:25:00,50.8,24.1,30.02,NW,309,5.0,5.0,35,0.00,,,0.00,Wunderground v.1.13,2013-03-29 20:25:00,
2013-03-29 16:30:00,51.1,23.7,30.02,NW,319,4.0,4.0,34,0.00,,,0.00,Wunderground v.1.13,2013-03-29 20:30:00,
2013-03-29 16:40:00,50.7,24.0,30.02,WNW,295,4.0,4.0,35,0.00,,,0.00,Wunderground v.1.13,2013-03-29 20:40:00,
2013-03-29 16:45:00,50.4,24.4,30.02,NNW,336,4.0,4.0,36,0.00,,,0.00,Wunderground v.1.13,2013-03-29 20:45:00,
2013-03-29 16:55:00,50.1,25.5,30.02,WNW,298,3.0,3.0,38,0.00,,,0.00,Wunderground v.1.13,2013-03-29 20:55:00,
2013-03-29 17:00:00,49.6,25.6,30.02,West,270,5.0,8.0,39,0.00,,,0.00,Wunderground v.1.13,2013-03-29 21:00:00,
2013-03-29 17:05:00,49.6,26.2,30.02,WNW,299,4.0,5.0,40,0.00,,,0.00,Wunderground v.1.13,2013-03-29 21:05:00,
2013-03-29 17:10:00,49.5,26.7,30.02,West,275,3.0,7.0,41,0.00,,,0.00,Wunderground v.1.13,2013-03-29 21:10:00,
2013-03-29 17:20:00,49.1,26.4,30.03,West,267,3.0,3.0,41,0.00,,,0.00,Wunderground v.1.13,2013-03-29 21:20:00,
2013-03-29 17:25:00,48.9,26.2,30.03,NNW,339,3.0,3.0,41,0.00,,,0.00,Wunderground v.1.13,2013-03-29 21:25:00,
2013-03-29 17:35:00,48.9,26.2,30.03,West,280,2.0,2.0,41,0.00,,,0.00,Wunderground v.1.13,2013-03-29 21:35:00,
2013-03-29 17:40:00,48.9,26.2,30.03,NNW,332,2.0,9.0,41,0.00,,,0.00,Wunderground v.1.13,2013-03-29 21:40:00,
2013-03-29 17:50:00,48.8,26.7,30.03,WNW,287,4.0,4.0,42,0.00,,,0.00,Wunderground v.1.13,2013-03-29 21:50:00,
2013-03-29 17:55:00,48.8,27.3,30.03,NW,318,3.0,5.0,43,0.00,,,0.00,Wunderground v.1.13,2013-03-29 21:55:00,
2013-03-29 18:00:00,48.6,27.6,30.04,WNW,289,3.0,3.0,44,0.00,,,0.00,Wunderground v.1.13,2013-03-29 22:00:00,
2013-03-29 18:10:00,48.3,27.4,30.04,NW,325,3.0,3.0,44,0.00,,,0.00,Wunderground v.1.13,2013-03-29 22:10:00,
2013-03-29 18:15:00,48.2,27.3,30.04,WNW,288,4.0,4.0,44,0.00,,,0.00,Wunderground v.1.13,2013-03-29 22:15:00,
2013-03-29 18:20:00,48.2,27.3,30.04,WNW,288,3.0,3.0,44,0.00,,,0.00,Wunderground v.1.13,2013-03-29 22:20:00,
2013-03-29 18:30:00,48.0,28.2,30.04,West,275,3.0,3.0,46,0.00,,,0.00,Wunderground v.1.13,2013-03-29 22:30:00,
2013-03-29 18:35:00,47.7,27.9,30.05,NNW,336,4.0,4.0,46,0.00,,,0.00,Wunderground v.1.13,2013-03-29 22:35:00,
2013-03-29 18:40:00,47.6,27.8,30.05,WNW,292,4.0,5.0,46,0.00,,,0.00,Wunderground v.1.13,2013-03-29 22:40:00,
2013-03-29 18:50:00,47.3,27.5,30.05,WNW,299,3.0,3.0,46,0.00,,,0.00,Wunderground v.1.13,2013-03-29 22:50:00,
2013-03-29 19:00:00,47.1,27.9,30.05,WNW,285,3.0,5.0,47,0.00,,,0.00,Wunderground v.1.13,2013-03-29 23:00:00,
2013-03-29 19:10:00,46.8,26.6,30.05,NNW,344,1.0,1.0,45,0.00,,,0.00,Wunderground v.1.13,2013-03-29 23:10:00,
2013-03-29 19:15:00,46.8,25.5,30.05,SSE,161,2.0,2.0,43,0.00,,,0.00,Wunderground v.1.13,2013-03-29 23:15:00,
2013-03-29 19:20:00,46.7,25.4,30.05,WNW,284,2.0,2.0,43,0.00,,,0.00,Wunderground v.1.13,2013-03-29 23:20:00,
2013-03-29 19:25:00,46.5,25.2,30.05,WNW,302,2.0,2.0,43,0.00,,,0.00,Wunderground v.1.13,2013-03-29 23:25:00,
2013-03-29 19:30:00,46.4,25.6,30.05,NW,309,2.0,2.0,44,0.00,,,0.00,Wunderground v.1.13,2013-03-29 23:30:00,
2013-03-29 19:40:00,46.2,25.5,30.05,West,281,1.0,1.0,44,0.00,,,0.00,Wunderground v.1.13,2013-03-29 23:40:00,
2013-03-29 19:45:00,46.1,25.9,30.05,WNW,294,1.0,1.0,45,0.00,,,0.00,Wunderground v.1.13,2013-03-29 23:45:00,
2013-03-29 19:50:00,46.0,25.8,30.05,WNW,288,1.0,2.0,45,0.00,,,0.00,Wunderground v.1.13,2013-03-29 23:50:00,
2013-03-29 20:00:00,46.0,26.4,30.05,WNW,295,2.0,2.0,46,0.00,,,0.00,Wunderground v.1.13,2013-03-30 00:00:00,
2013-03-29 20:05:00,46.0,26.9,30.05,WNW,294,1.0,5.0,47,0.00,,,0.00,Wunderground v.1.13,2013-03-30 00:05:00,
2013-03-29 20:10:00,46.0,26.9,30.05,NW,325,1.0,1.0,47,0.00,,,0.00,Wunderground v.1.13,2013-03-30 00:10:00,
2013-03-29 20:20:00,45.8,26.7,30.06,West,264,1.0,1.0,47,0.00,,,0.00,Wunderground v.1.13,2013-03-30 00:20:00,
2013-03-29 20:25:00,45.7,26.6,30.06,WNW,298,2.0,2.0,47,0.00,,,0.00,Wunderground v.1.13,2013-03-30 00:25:00,
2013-03-29 20:35:00,45.4,26.8,30.06,WNW,302,1.0,1.0,48,0.00,,,0.00,Wunderground v.1.13,2013-03-30 00:35:00,
2013-03-29 20:40:00,45.2,26.7,30.06,WNW,302,1.0,1.0,48,0.00,,,0.00,Wunderground v.1.13,2013-03-30 00:40:00,
2013-03-29 20:50:00,45.1,27.1,30.07,WNW,291,1.0,1.0,49,0.00,,,0.00,Wunderground v.1.13,2013-03-30 00:50:00,
2013-03-29 20:55:00,44.9,26.9,30.07,WNW,295,1.0,3.0,49,0.00,,,0.00,Wunderground v.1.13,2013-03-30 00:55:00,
2013-03-29 21:00:00,44.8,27.3,30.07,WNW,295,1.0,1.0,50,0.00,,,0.00,Wunderground v.1.13,2013-03-30 01:00:00,
2013-03-29 21:10:00,44.6,27.6,30.07,West,280,2.0,3.0,51,0.00,,,0.00,Wunderground v.1.13,2013-03-30 01:10:00,
2013-03-29 21:15:00,44.6,27.6,30.07,West,281,3.0,5.0,51,0.00,,,0.00,Wunderground v.1.13,2013-03-30 01:15:00,
2013-03-29 21:25:00,44.3,27.8,30.07,WNW,282,2.0,2.0,52,0.00,,,0.00,Wunderground v.1.13,2013-03-30 01:25:00,
2013-03-29 21:30:00,44.2,28.1,30.07,WNW,282,1.0,1.0,53,0.00,,,0.00,Wunderground v.1.13,2013-03-30 01:30:00,
2013-03-29 21:35:00,44.1,28.0,30.07,WNW,282,1.0,1.0,53,0.00,,,0.00,Wunderground v.1.13,2013-03-30 01:35:00,
2013-03-29 21:45:00,43.8,28.2,30.07,West,265,1.0,1.0,54,0.00,,,0.00,Wunderground v.1.13,2013-03-30 01:45:00,
2013-03-29 21:50:00,43.8,28.2,30.08,West,263,2.0,3.0,54,0.00,,,0.00,Wunderground v.1.13,2013-03-30 01:50:00,
2013-03-29 21:55:00,43.6,28.5,30.08,WNW,288,2.0,5.0,55,0.00,,,0.00,Wunderground v.1.13,2013-03-30 01:55:00,
2013-03-29 22:00:00,43.6,28.5,30.08,WNW,288,1.0,1.0,55,0.00,,,0.00,Wunderground v.1.13,2013-03-30 02:00:00,
2013-03-29 22:10:00,43.5,28.4,30.08,WNW,288,1.0,1.0,55,0.00,,,0.00,Wunderground v.1.13,2013-03-30 02:10:00,
2013-03-29 22:15:00,43.5,28.4,30.08,WNW,288,1.0,7.0,55,0.00,,,0.00,Wunderground v.1.13,2013-03-30 02:15:00,
2013-03-29 22:25:00,43.3,28.2,30.08,WNW,288,2.0,2.0,55,0.00,,,0.00,Wunderground v.1.13,2013-03-30 02:25:00,
2013-03-29 22:30:00,43.3,28.2,30.08,WNW,288,1.0,2.0,55,0.00,,,0.00,Wunderground v.1.13,2013-03-30 02:30:00,
2013-03-29 22:35:00,43.3,28.2,30.08,WNW,288,1.0,1.0,55,0.00,,,0.00,Wunderground v.1.13,2013-03-30 02:35:00,
2013-03-29 22:40:00,43.3,28.2,30.08,WNW,288,1.0,1.0,55,0.00,,,0.00,Wunderground v.1.13,2013-03-30 02:40:00,
2013-03-29 22:45:00,43.1,28.0,30.08,WNW,288,1.0,1.0,55,0.00,,,0.00,Wunderground v.1.13,2013-03-30 02:45:00,
2013-03-29 22:55:00,42.9,28.3,30.08,WNW,288,1.0,1.0,56,0.00,,,0.00,Wunderground v.1.13,2013-03-30 02:55:00,
2013-03-29 23:00:00,42.9,28.3,30.08,WNW,288,1.0,1.0,56,0.00,,,0.00,Wunderground v.1.13,2013-03-30 03:00:00,
2013-03-29 23:05:00,42.8,28.2,30.08,WNW,288,1.0,1.0,56,0.00,,,0.00,Wunderground v.1.13,2013-03-30 03:05:00,
2013-03-29 23:15:00,42.6,28.4,30.08,WNW,288,1.0,1.0,57,0.00,,,0.00,Wunderground v.1.13,2013-03-30 03:15:00,
2013-03-29 23:20:00,42.5,28.3,30.08,WNW,288,1.0,1.0,57,0.00,,,0.00,Wunderground v.1.13,2013-03-30 03:20:00,
2013-03-29 23:25:00,42.3,28.1,30.08,WNW,288,1.0,1.0,57,0.00,,,0.00,Wunderground v.1.13,2013-03-30 03:25:00,
2013-03-29 23:35:00,42.2,28.5,30.08,WNW,288,1.0,3.0,58,0.00,,,0.00,Wunderground v.1.13,2013-03-30 03:35:00,
2013-03-29 23:40:00,42.2,28.5,30.08,WNW,299,1.0,1.0,58,0.00,,,0.00,Wunderground v.1.13,2013-03-30 03:40:00,
2013-03-29 23:45:00,42.2,28.5,30.08,WNW,299,1.0,1.0,58,0.00,,,0.00,Wunderground v.1.13,2013-03-30 03:45:00,
2013-03-29 23:55:00,41.9,28.6,30.08,WNW,299,1.0,1.0,59,0.00,,,0.00,Wunderground v.1.13,2013-03-30 03:55:00,